2021-006EP (47688 NORAD) Tracking and Keplerian Element Data

This shows tracking and keplerian element data for the satellite.

Feedback or suggestion? Click here.




ElementValue
Catalog47688
Name2021-006EP
Epoch Orbit567
Epoch Day53.72393867
Epoch Year2021
RAAN116.9066
Inclination97.5094
Eccentricity0.0013322
Argument of Perigee123.203
Mean Anonmoly237.0479
Mean Motion15.11288743
Decay Rate1.011E-05
L11 47688U 21006EP 21053.72393867 .00001011 00000-0 63780-4 0 9999
L22 47688 97.5094 116.9066 0013322 123.2030 237.0479 15.11288743 5670

Live tracking and technical data element details for 2021-006EP (NORAD 47688). 2021-006EP can be tracked NOW for your location showing map with azimuth and elevation plus other details from your city location.

Track the satellite on the map from your city or location and see movement details for azimuth, elevation, latitude, longitude, range, height, and movement on the map or in text.







IsCatalogInMostPopularTable: catalog: 47688, numindb: 1
Update: records affected: 1



GetName: 47688 2021-006EP

Hit Count: updated at: Fri, 26 Feb 2021 10:33:20 GMT